C/2009 Y1 (Catalina)
Epoch 2011 Feb. 8.0 TT = JDT 2455600.5  
T 2011 Jan. 28.90122 TT                                 Nakano
q   2.5206720            (2000.0)            P               Q
z  +0.0026415      Peri.  127.38731     +0.65139011     +0.68694785
 +/-0.0000178      Node   160.27745     -0.28547515     -0.17151648
e   0.9933418      Incl.  107.31652     +0.70298994     -0.70617615
From 157 observations 2009 Dec. 17-2010 Mar. 16, mean residual 0".47.
   (1/a)org.= +0.002672, (1/a)fut.= +0.002981 (+/-0.000018), Q= 6.
   The comet has passed 1.22 AU from Saturn on 2008 Mar. 8 UT.
Residuals in seconds of arc 
2009/                     091229 461  0.0   0.3+    100215 H45  0.5-  0.2+  
091217 703  0.5-  0.1-    091229 900  0.6-  1.5-    100215 H45  0.2-  0.4+  
091217 703  0.6-  0.1+    091229 900  0.6+  1.9-    100215 D93  0.1+  0.4-  
091217 703  1.1-  0.7-    2010/                     100215 D93  0.0   0.6-  
091217 703  0.5-  0.1-    100106 349  0.1-  0.2-    100216 H45  0.6+  0.3+  
091218 H06  0.3-  0.7-    100106 349  0.6-  0.4-    100216 H45  0.4+  0.1-  
091218 H06  0.1-  0.4-    100107 372  0.2+  0.2-    100216 H45  0.4+  0.0   
091218 H06  0.2-  0.1+    100107 372  0.4-  0.3-    100216 H45  0.5+  0.0   
091218 H01  0.4+  0.1+    100112 H10  0.7-  0.8+    100216 H45  0.3+  0.2-  
091218 H01  0.2+  0.1+    100112 H10  0.4-  0.5+    100216 H45  0.4+  0.3+  
091218 H01  0.3+  0.1+    100112 H10  0.0   0.3+    100216 D93  0.2+  0.1-  
091218 H01  0.3+  0.1+    100112 H10  0.3-  0.5-    100216 D93  0.1+  0.6+  
091218 H01  0.5+  0.0     100116 157  0.2+  0.2-    100217 046  0.8+  0.2+  
091219 J95  0.7-  0.5-    100116 157  0.8+  0.1+    100217 046  1.5-  0.3-  
091219 J95  0.2+  0.1+    100118 204  0.2-  0.1-    100217 046  0.8-  1.3-  
091219 J95  0.0   0.2+    100118 204  0.4-  0.2-    100217 046  0.3+  1.0+  
091219 G96  0.0   0.1-    100118 473  0.2-  0.0     100217 046  1.8+  0.2-  
091219 G96  0.3-  0.2-    100118 473  0.2-  0.3+    100217 046  1.0+  0.4-  
091219 G96  0.1-  0.1-    100119 215  0.4+  0.4+    100219 900  0.4-  0.4+  
091219 G96  0.2-  0.1-    100119 215  0.4+  0.1+    100219 900  0.5-  0.4-  
091219 473  0.1+  0.1+    100123 349  0.3+  0.2+    100220 J01  0.1+  0.2-  
091219 473  0.0   0.1+    100123 349  0.1+  0.0     100220 J01  0.1+  0.2-  
091220 204  0.1-  0.1+    100124 561  0.3+  0.1-    100220 J01  0.1+  0.1+  
091220 204  0.1+  0.0     100124 561  0.1+  0.4-    100226 704 (2.0+  0.8+) 
091220 H01  0.7+  0.3+    100124 561  0.6+  0.2+    100226 704  0.4+  0.1+  
091220 H01  0.7+  0.2+    100124 704  0.8+  0.4+    100226 704  1.0+  0.6+  
091220 H01  0.5+  0.3+    100124 704  0.4-  0.4-    100226 704  0.6+  0.1+  
091220 H01  0.6+  0.2+    100124 704  0.3+  0.0     100226 704  0.1+  1.1+  
091221 473  0.1+  0.1+    100124 704  0.9-  0.5-    100306 A77  0.0   0.3-  
091221 473  0.0   0.0     100124 704  0.4+  0.1-    100306 A77  0.0   0.0   
091221 349  0.7+  0.3+    100124 900  0.2-  0.3+    100306 A77  0.1-  0.2-  
091221 349  0.8+  0.6+    100124 900  0.2-  0.4+    100308 H45  0.3-  0.0   
091221 349  0.7+  0.4+    100124 372  0.3+  0.4+    100308 H45  0.1-  0.1-  
091223 372  0.8+  0.0     100125 H45  0.8-  0.8-    100308 H45  0.0   0.2+  
091223 372  0.1+  1.8+    100125 H45  0.6-  0.1-    100308 H45  0.3-  0.3+  
091226 G68  1.2+  0.2-    100125 H45  0.2-  0.8+    100308 H45  0.0   0.1-  
091226 G68  0.0   0.2+    100125 H45  0.1+  0.2-    100308 H45  0.1-  0.0   
091226 372  0.1-  0.6+    100125 H45  0.2-  0.0     100310 H45  0.0   0.1-  
091226 372  0.5+  0.0     100125 H45  0.0   0.0     100310 H45  0.2+  0.1-  
091227 A77  0.2-  0.3+    100205 B49  0.4-  1.6-    100310 H45  0.1-  0.1-  
091227 A77  0.1+  0.0     100205 B49 (1.9-  2.4-)   100310 H45  0.2-  0.4-  
091227 A77  0.9-  0.4-    100205 B49  1.6-  1.2-    100310 H45  0.5-  0.1-  
091227 A77 (0.4-  3.4+)   100206 372  0.0   0.4+    100310 H45  0.3+  0.0   
091228 H45  0.3-  0.2+    100207 B18  0.1-  0.5+    100313 349  0.3+  0.5-  
091228 H45  0.3-  0.3-    100207 B18  0.1-  0.5+    100313 349  0.2+  0.2-  
091228 H45  0.4-  1.3-    100207 B18  0.1-  0.4+    100314 J01  0.1+  0.5+  
091228 H45  0.7-  0.1-    100207 D93  0.4+  0.9+    100314 J01  0.2-  0.5+  
091228 H45  0.2-  0.2-    100207 D93  0.1+  0.2+    100314 J01  0.1+  0.0   
091228 H45  0.2-  0.1+    100207 D93  1.4-  0.4-    100316 H45  0.1-  0.3-  
091228 H45  0.3-  0.2+    100215 H45  0.3-  0.1+    100316 H45  0.7-  0.1-  
091229 473  0.0   0.3+    100215 H45  0.3+  0.3+    100316 H45  0.2-  0.1-  
091229 473  0.0   0.4+    100215 H45  0.2-  0.2+    100316 H45  0.1+  0.3-  
091229 461  0.1+  0.0     100215 H45  0.2-  0.1+    100316 H45  0.3-  0.2-  
091229 461  0.1+  0.1+    100215 H45  0.0   0.2+    100316 H45  0.1+  0.0   

NAKANO
         **** Don't distribute anyone except personal use only ****
           (C) Copyright 2010 Orbit.Astro.Assoc./ComputingSection
write mail from CFAD0::NAKANO on 2010-03-22 08:10:35(JST).


◎C/2009 Y1の軌道と予報位置

 ・・・と言っていたら,この彗星も2008年3月8日に土星まで1.22 AUまで
接近していました.

    C/2009 Y1 (Catalina)
Epoch 2011 Feb. 8.0 TT = JDT 2455600.5  
T 2011 Jan. 28.92521 TT                                 Nakano
q   2.5202760            (2000.0)            P               Q
z  +0.0027076      Peri.  127.39926     +0.65153032     +0.68680579
 +/-0.0000897      Node   160.27630     -0.28553268     -0.17146216
e   0.9931761      Incl.  107.31577     +0.70283663     -0.70632750
From 96 observations 2009 Dec. 17-2010 Feb. 7, mean residual 0".49.
   (1/a)org.= +0.002738, (1/a)fut.= +0.003048 (+/-0.000090), Q= 5.
   The comet has passed 1.22 AU from Saturn on 2008 Mar. 8 and will
   pass 3.26 AU from Jupiter on 2011 May 11.
 
Date/        TT  R.A.(2000) Decl.     Delta   r     Daily motion  Mag.  Moon Age
              h    h  m       。  ,                      ,  / PA 。  m1      。
2010 Feb. 15 18  11 54.65  +63 16.5   3.688  4.333    21.2 / 334  17.7  118  .03
          16 18  11 53.23  +63 35.5   3.683  4.325    21.2 / 333  17.7  113  .06
          17 18  11 51.75  +63 54.3   3.679  4.318    21.1 / 332  17.7  108  .12
          18 18  11 50.22  +64 12.9   3.674  4.310    21.0 / 331  17.7  101  .19
          19 18  11 48.64  +64 31.2   3.671  4.303    21.0 / 330  17.7   94  .27
          20 18  11 46.99  +64 49.3   3.667  4.295    20.9 / 329  17.7   87  .37
          21 18  11 45.29  +65 07.2   3.664  4.288    20.8 / 328  17.6   80  .47
          22 18  11 43.54  +65 24.9   3.661  4.280    20.7 / 327  17.6   73  .58
          23 18  11 41.72  +65 42.2   3.658  4.273    20.6 / 326  17.6   67  .69
          24 18  11 39.85  +65 59.3   3.656  4.265    20.5 / 325  17.6   62  .79
          25 18  11 37.92  +66 16.1   3.653  4.258    20.4 / 324  17.6   58  .87
          26 18  11 35.93  +66 32.6   3.652  4.250    20.2 / 323  17.6   57  .94
          27 18  11 33.89  +66 48.7   3.650  4.243    20.1 / 322  17.6   59  .99
          28 18  11 31.78  +67 04.6   3.649  4.235    20.0 / 321  17.6   64 1.00
     Mar.  1 18  11 29.62  +67 20.1   3.647  4.228    19.8 / 320  17.6   70  .98
           2 18  11 27.41  +67 35.3   3.647  4.220    19.7 / 319  17.6   77  .94
           3 18  11 25.14  +67 50.2   3.646  4.213    19.5 / 318  17.6   85  .87
           4 18  11 22.81  +68 04.6   3.646  4.205    19.4 / 317  17.5   93  .79
           5 18  11 20.43  +68 18.8   3.645  4.198    19.2 / 316  17.5  100  .69
           6 18  11 18.00  +68 32.5   3.646  4.190    19.0 / 315  17.5  107  .59
           7 18  11 15.51  +68 45.8   3.646  4.183    18.9 / 314  17.5  113  .49
           8 18  11 12.98  +68 58.8   3.647  4.175    18.7 / 313  17.5  118  .39
           9 18  11 10.40  +69 11.4   3.647  4.168    18.5 / 311  17.5  121  .30
          10 18  11 07.77  +69 23.5   3.648  4.160    18.3 / 310  17.5  123  .22
          11 18  11 05.10  +69 35.2   3.650  4.153    18.1 / 309  17.5  123  .15
          12 18  11 02.38  +69 46.6   3.651  4.146    17.9 / 308  17.5  121  .09
          13 18  10 59.63  +69 57.5   3.653  4.138    17.7 / 307  17.5  118  .04
          14 18  10 56.84  +70 07.9   3.655  4.131    17.5 / 305  17.5  113  .01
          15 18  10 54.02  +70 18.0   3.657  4.123    17.3 / 304  17.5  108  .00
          16 18  10 51.16  +70 27.6   3.659  4.116    17.1 / 303  17.5  102  .01
          17 18  10 48.28  +70 36.8   3.661  4.108    16.9 / 302  17.5   95  .04
          18 18  10 45.37  +70 45.5   3.664  4.101    16.6 / 300  17.4   88  .08
          19 18  10 42.45  +70 53.8   3.667  4.093    16.4 / 299  17.4   80  .14
          20 18  10 39.50  +71 01.7   3.670  4.086    16.2 / 298  17.4   74  .22
          21 18  10 36.54  +71 09.1   3.673  4.079    16.0 / 296  17.4   67  .32
          22 18  10 33.57  +71 16.1   3.676  4.071    15.7 / 295  17.4   62  .42
          23 18  10 30.60  +71 22.7   3.679  4.064    15.5 / 294  17.4   58  .53
          24 18  10 27.62  +71 28.9   3.683  4.056    15.3 / 292  17.4   56  .64
          25 18  10 24.65  +71 34.6   3.686  4.049    15.0 / 291  17.4   57  .75
          26 18  10 21.67  +71 39.9   3.690  4.042    14.8 / 290  17.4   60  .84
          27 18  10 18.71  +71 44.8   3.694  4.034    14.6 / 288  17.4   65  .92
          28 18  10 15.76  +71 49.4   3.698  4.027    14.3 / 287  17.4   72  .97
          29 18  10 12.82  +71 53.5   3.702  4.019    14.1 / 286  17.4   80 1.00
          30 18  10 09.90  +71 57.2   3.706  4.012    13.8 / 284  17.4   88  .99
          31 18  10 07.01  +72 00.5   3.711  4.005    13.6 / 283  17.4   97  .96
     Apr.  1 18  10 04.14  +72 03.5   3.715  3.997    13.4 / 282  17.4  105  .91
NAKANO
         **** Don't distribute anyone except personal use only ****
           (C) Copyright 2010 Orbit.Astro.Assoc./ComputingSection
write mail from CFAD0::NAKANO on 2010-02-11 06:13:

